吉林一号 高分 2D (JILIN-1 GAOFEN 2D)

导读

JILIN-01 GAOFEN 2D(吉林一号高分2D)是中国于2021年9月27日发射的商业高分辨率光学遥感卫星,隶属于"吉林一号"卫星星座。该卫星依托我国自主研发的"星载一体化"等先进技术,具备高分辨率成像、多模式成像能力,重量轻、成本低,可广泛服务于资源调查、环境监测、国土测绘、城乡规划等领域,进一步提升了吉林一号星座的全球覆盖能力与遥感服务时效。

基本信息
目录编号:
49256
目录名称:
JILIN-01 GAOFEN 2D
国际标识:
2021-086A
轨道中心:
EARTH
卫星名称:
高分 2D
卫星全名:
吉林一号 高分 2D (JILIN-1 GAOFEN 2D)
卫星状态:
在轨 (已飞行1810 天)
发射日期:
2021-09-27 UTC
国别 :
中国 (CN)
星等 :
--
该卫星已列入 空间交会检测服务 Space Conjunction Data Service (SCDS) ,当前飞行风险评估等级: 无高风险
轨道信息
数据来源 国际轨道数据
星历时间: 2026-09-11T15:56:34+0800
6小时前
查看轨道信息
半长轴: 6919.232km
偏心率: 0.0029629
轨道倾角: 97.658°
近地点辐角 229.730°
升交点赤经 17.030°
平近点角 130.134°
近地点: 520.594km
远地点: 561.596km
周期: 95.466分钟
每日圈数: 15.08398
详细信息
卫星平台:
CS-L3000A
平衡模式:
三轴稳定
覆盖范围:
全球
运营商:
长光卫星技术股份有限公司
运营商所在国:
中国
制造商(研发单位):
长光卫星技术股份有限公司
制造商所在国:
中国
使用方式:
暂无
卫星简介
“吉林一号”卫星星座(JiLin-1)是长光卫星技术有限公司在建的核心工程,是我国目前最大的商业遥感卫星星座,具备了较强的服务能力。该卫星仍在工作。
2D轨道图
3D轨道图
轨道高度分析图
轨道倾角分析图
轨道综合分析图
查看轨道综合分析图
交会数据列表
事件ID 空间交会对象 最接近时刻(TCA) 交会距离 交会风险概率(CRP) 交会风险指数(CRI) 操作
CDM_260909-123204-925605-615622
OBJECT D (56156)
2026-09-09T
12:32:16+0000
0.993 km
远距离
1.785609E-5 中风险 0.6
CDM_260909-123204-925605-615422
OBJECT B (56154)
2026-09-09T
12:32:16+0000
1.079 km
极远距离
1.336384E-5 中风险 0.58
CDM_260906-023504-925605-633924
2026-09-06T
02:35:34+0000
1.757 km
极远距离
3.855547E-6 低风险 0.47
CDM_260911-181004-925605-385129
2026-09-11T
18:10:03+0000
2.034 km
极远距离
2.709094E-6 低风险 0.44
CDM_260912-182404-739104-925623
2026-09-12T
18:24:25+0000
2.406 km
极远距离
1.718573E-6 低风险 0.4
CDM_260909-123204-925605-615522
OBJECT C (56155)
2026-09-09T
12:32:16+0000
2.997 km
极远距离
9.399142E-7 极低风险 0.34
与全量物体交会距离演化趋势
与全量物体交会风险概率演化趋势